Startpagina
METAR-TAF:

METAR-TAF

Vliegvelden :

Black_Hills

Spearfish, South Dakota, Verenigde Staten

breedte: 44-29N, lengte: 103-47W, hoogte: 1188 m

Actueel weer

Dit bericht is 12 minuten geleden gemaakt, om 07:15 UTC
Wind 8 kt uit het zuiden met uitschieters tot 15 kt
Temperatuur 7°C
Vochtigheid 33%
Druk 1015 hPa
Zicht: 16.1 km
Onbewolkt

METAR: KSPF 070715Z AUTO 18008G15KT 10SM CLR 07/M08 A2997 RMK AO2

Tijdstip: 00:27 (07:27 UTC)


TAF: ontbreekt

Waarnemingen en weersverwachtingen van meer dan 4000 vliegvelden (METAR en TAF).

De beschikbare stations zijn de gele en rode punten op de kaart.

Ga met uw muis naar het station om de naam te zien.

Klik dan om waarnemingen en weersverwachtingen te zien.

kaart wijzigen: klik op de groene knoppen met een zwart kruis om in te zoomen, op de groene knop met een streepje om uit te zoomen of op de groene pijlen voor aangrenzende kaarten.


METAR-TAF: